GLO1782 SBEG-SBSN

Flight info

Callsign GLO1782
Flight time 0h 48m
Altitude 35000
Route XOLOK UZ81 TOBUX DCT
Aircraft B738/M-SDFGIKLORWXY/LB1

Departure

Time 2026-04-14 16:51
Airport Eduardo Gomes International Airport (SBEG)

Arrival

Time 2026-04-14 17:39
Airport Santarém - Maestro Wilson Fonseca International Airport (SBSN)
Time Latitude Longitude Altitude Speed Heading
2026-04-14 16:35 -3.03272 -60.04623 267 ft 0 kts
2026-04-14 16:43 -3.03274 -60.04623 267 ft 2 kts
2026-04-14 16:44 -3.03301 -60.04623 267 ft 4 kts
2026-04-14 16:44 -3.03325 -60.04624 267 ft 3 kts
2026-04-14 16:44 -3.03348 -60.04619 267 ft 4 kts 309°
2026-04-14 16:45 -3.03356 -60.04588 267 ft 0 kts 270°
2026-04-14 16:46 -3.03356 -60.04599 267 ft 5 kts 269°
2026-04-14 16:47 -3.03354 -60.04672 267 ft 15 kts 271°
2026-04-14 16:47 -3.03384 -60.04792 267 ft 19 kts 239°
2026-04-14 16:47 -3.03477 -60.04881 267 ft 18 kts 216°
2026-04-14 16:47 -3.03563 -60.04971 267 ft 18 kts 239°
2026-04-14 16:48 -3.03603 -60.05085 267 ft 17 kts 255°
2026-04-14 16:48 -3.03637 -60.05214 267 ft 21 kts 255°
2026-04-14 16:48 -3.03674 -60.05369 267 ft 25 kts 260°
2026-04-14 16:48 -3.03691 -60.05553 267 ft 28 kts 270°
2026-04-14 16:49 -3.03691 -60.05741 267 ft 26 kts 270°
2026-04-14 16:49 -3.03691 -60.05917 267 ft 24 kts 270°
2026-04-14 16:49 -3.03691 -60.06082 267 ft 23 kts 266°
2026-04-14 16:49 -3.03744 -60.06166 267 ft 22 kts 204°
2026-04-14 16:50 -3.03858 -60.06050 269 ft 25 kts 90°
2026-04-14 16:50 -3.03859 -60.05845 268 ft 69 kts 90°
2026-04-14 16:50 -3.03859 -60.05118 267 ft 138 kts 90°
2026-04-14 16:50 -3.03862 -60.03962 327 ft 188 kts 92°
2026-04-14 16:51 -3.03865 -60.02680 1248 ft 181 kts 90°
2026-04-14 16:51 -3.03870 -60.01448 2285 ft 173 kts 89°
2026-04-14 16:51 -3.03896 -60.00193 2898 ft 194 kts 90°
2026-04-14 16:51 -3.03944 -59.98738 3184 ft 223 kts 91°
2026-04-14 16:52 -3.04000 -59.97122 3580 ft 238 kts 91°
2026-04-14 16:52 -3.04060 -59.95403 3942 ft 260 kts 90°
2026-04-14 16:52 -3.04123 -59.93561 4679 ft 269 kts 91°
2026-04-14 16:52 -3.04186 -59.91706 5524 ft 272 kts 91°
2026-04-14 16:53 -3.04245 -59.89802 6410 ft 274 kts 89°
2026-04-14 16:53 -3.04124 -59.87886 7245 ft 276 kts 83°
2026-04-14 16:53 -3.03906 -59.85967 8051 ft 279 kts 83°
2026-04-14 16:53 -3.03669 -59.84026 8896 ft 282 kts 83°
2026-04-14 16:54 -3.03425 -59.82065 9812 ft 284 kts 83°
2026-04-14 16:54 -3.03180 -59.80100 10495 ft 295 kts 83°
2026-04-14 16:54 -3.02917 -59.77969 10676 ft 321 kts 83°
2026-04-14 16:54 -3.02634 -59.75672 10835 ft 344 kts 83°
2026-04-14 16:55 -3.02334 -59.73223 10981 ft 364 kts 83°
2026-04-14 16:55 -3.02021 -59.70661 11288 ft 376 kts 83°
2026-04-14 16:55 -3.01702 -59.68047 11812 ft 381 kts 83°
2026-04-14 16:55 -3.01381 -59.65408 12409 ft 383 kts 83°
2026-04-14 16:56 -3.01058 -59.62749 12995 ft 387 kts 83°
2026-04-14 16:56 -3.00732 -59.60065 13580 ft 390 kts 83°
2026-04-14 16:56 -3.00402 -59.57358 14079 ft 394 kts 83°
2026-04-14 16:56 -3.00070 -59.54626 14573 ft 397 kts 83°
2026-04-14 16:57 -2.99737 -59.51883 15074 ft 399 kts 83°
2026-04-14 16:57 -2.99401 -59.49121 15561 ft 401 kts 83°
2026-04-14 16:57 -2.99063 -59.46340 16047 ft 404 kts 83°
2026-04-14 16:57 -2.98722 -59.43541 16517 ft 406 kts 83°
2026-04-14 16:58 -2.98380 -59.40726 16973 ft 409 kts 83°
2026-04-14 16:58 -2.98039 -59.37929 17433 ft 411 kts 83°
2026-04-14 16:58 -2.97693 -59.35082 17872 ft 414 kts 83°
2026-04-14 16:58 -2.97344 -59.32214 18297 ft 416 kts 83°
2026-04-14 16:59 -2.96993 -59.29336 18670 ft 418 kts 83°
2026-04-14 16:59 -2.96640 -59.26441 19035 ft 421 kts 83°
2026-04-14 16:59 -2.96285 -59.23527 19386 ft 423 kts 83°
2026-04-14 16:59 -2.95928 -59.20592 19729 ft 426 kts 83°
2026-04-14 17:00 -2.95569 -59.17648 20068 ft 428 kts 83°
2026-04-14 17:00 -2.95207 -59.14680 20401 ft 430 kts 83°
2026-04-14 17:00 -2.94843 -59.11697 20726 ft 433 kts 83°
2026-04-14 17:00 -2.94477 -59.08693 21027 ft 436 kts 83°
2026-04-14 17:01 -2.94108 -59.05673 21318 ft 438 kts 83°
2026-04-14 17:01 -2.93738 -59.02642 21621 ft 441 kts 83°
2026-04-14 17:01 -2.93366 -58.99592 21944 ft 442 kts 83°
2026-04-14 17:01 -2.92992 -58.96534 22253 ft 444 kts 83°
2026-04-14 17:02 -2.92617 -58.93463 22525 ft 446 kts 83°
2026-04-14 17:02 -2.92245 -58.90415 22791 ft 448 kts 83°
2026-04-14 17:02 -2.91866 -58.87311 23041 ft 450 kts 83°
2026-04-14 17:02 -2.91485 -58.84193 23298 ft 452 kts 83°
2026-04-14 17:03 -2.91102 -58.81060 23534 ft 454 kts 83°
2026-04-14 17:03 -2.90717 -58.77912 23741 ft 456 kts 83°
2026-04-14 17:03 -2.90331 -58.74759 23957 ft 457 kts 83°
2026-04-14 17:03 -2.89944 -58.71598 24171 ft 458 kts 83°
2026-04-14 17:04 -2.89562 -58.68471 24372 ft 459 kts 83°
2026-04-14 17:04 -2.89172 -58.65285 24573 ft 461 kts 83°
2026-04-14 17:04 -2.88781 -58.62093 24766 ft 462 kts 83°
2026-04-14 17:04 -2.88390 -58.58899 24960 ft 463 kts 83°
2026-04-14 17:05 -2.87997 -58.55687 25147 ft 465 kts 83°
2026-04-14 17:05 -2.87603 -58.52470 25336 ft 466 kts 83°
2026-04-14 17:05 -2.87213 -58.49288 25516 ft 467 kts 83°
2026-04-14 17:05 -2.86817 -58.46061 25703 ft 468 kts 83°
2026-04-14 17:06 -2.86422 -58.42835 25939 ft 467 kts 83°
2026-04-14 17:06 -2.86021 -58.39564 26129 ft 468 kts 83°
2026-04-14 17:06 -2.85623 -58.36323 26276 ft 470 kts 83°
2026-04-14 17:06 -2.85229 -58.33112 26422 ft 472 kts 83°
2026-04-14 17:07 -2.84830 -58.29855 26582 ft 473 kts 83°
2026-04-14 17:07 -2.84429 -58.26587 26740 ft 474 kts 83°
2026-04-14 17:07 -2.84026 -58.23310 26892 ft 475 kts 83°
2026-04-14 17:07 -2.83623 -58.20026 27049 ft 476 kts 83°
2026-04-14 17:08 -2.83219 -58.16739 27216 ft 477 kts 83°
2026-04-14 17:08 -2.82815 -58.13450 27387 ft 477 kts 83°
2026-04-14 17:08 -2.82409 -58.10141 27516 ft 478 kts 83°
2026-04-14 17:08 -2.82003 -58.06838 27668 ft 479 kts 83°
2026-04-14 17:09 -2.81597 -58.03537 27878 ft 478 kts 83°
2026-04-14 17:09 -2.81191 -58.00236 28117 ft 477 kts 83°
2026-04-14 17:09 -2.80786 -57.96940 28334 ft 477 kts 83°
2026-04-14 17:09 -2.80382 -57.93656 28526 ft 477 kts 83°
2026-04-14 17:10 -2.79976 -57.90362 28728 ft 477 kts 83°
2026-04-14 17:10 -2.79571 -57.87067 28937 ft 477 kts 83°
2026-04-14 17:10 -2.79164 -57.83763 29161 ft 476 kts 83°
2026-04-14 17:10 -2.78760 -57.80478 29385 ft 476 kts 83°
2026-04-14 17:11 -2.78360 -57.77235 29608 ft 476 kts 83°
2026-04-14 17:11 -2.77955 -57.73947 29833 ft 476 kts 83°
2026-04-14 17:11 -2.77550 -57.70657 30052 ft 476 kts 83°
2026-04-14 17:11 -2.77145 -57.67373 30267 ft 475 kts 83°
2026-04-14 17:12 -2.76741 -57.64097 30481 ft 474 kts 83°
2026-04-14 17:12 -2.76338 -57.60828 30721 ft 473 kts 83°
2026-04-14 17:12 -2.75935 -57.57562 30946 ft 473 kts 83°
2026-04-14 17:12 -2.75533 -57.54304 31150 ft 473 kts 83°
2026-04-14 17:13 -2.75131 -57.51040 31365 ft 472 kts 83°
2026-04-14 17:13 -2.74729 -57.47782 31597 ft 472 kts 83°
2026-04-14 17:13 -2.74327 -57.44532 31842 ft 471 kts 83°
2026-04-14 17:13 -2.73926 -57.41285 32072 ft 471 kts 83°
2026-04-14 17:14 -2.73524 -57.38025 32302 ft 470 kts 83°
2026-04-14 17:14 -2.73127 -57.34810 32456 ft 472 kts 83°
2026-04-14 17:14 -2.72722 -57.31537 32571 ft 475 kts 83°
2026-04-14 17:14 -2.72316 -57.28250 32799 ft 474 kts 83°
2026-04-14 17:15 -2.71911 -57.24975 33094 ft 473 kts 83°
2026-04-14 17:15 -2.71507 -57.21708 33365 ft 472 kts 83°
2026-04-14 17:15 -2.71105 -57.18453 33585 ft 472 kts 83°
2026-04-14 17:15 -2.70701 -57.15191 33797 ft 473 kts 83°
2026-04-14 17:16 -2.70303 -57.11970 34013 ft 472 kts 83°
2026-04-14 17:16 -2.69899 -57.08712 34251 ft 471 kts 83°
2026-04-14 17:16 -2.69496 -57.05454 34477 ft 471 kts 83°
2026-04-14 17:16 -2.69095 -57.02210 34699 ft 471 kts 83°
2026-04-14 17:17 -2.68692 -56.98958 34920 ft 470 kts 83°
2026-04-14 17:17 -2.68291 -56.95718 35136 ft 470 kts 83°
2026-04-14 17:17 -2.67889 -56.92478 35360 ft 469 kts 83°
2026-04-14 17:17 -2.67488 -56.89239 35582 ft 469 kts 83°
2026-04-14 17:18 -2.67087 -56.86005 35810 ft 468 kts 83°
2026-04-14 17:18 -2.66687 -56.82776 36023 ft 467 kts 83°
2026-04-14 17:18 -2.66287 -56.79550 36270 ft 465 kts 83°
2026-04-14 17:18 -2.65888 -56.76337 36465 ft 464 kts 83°
2026-04-14 17:19 -2.65490 -56.73126 36597 ft 465 kts 83°
2026-04-14 17:19 -2.65092 -56.69916 36722 ft 465 kts 83°
2026-04-14 17:19 -2.64693 -56.66702 36852 ft 465 kts 83°
2026-04-14 17:19 -2.64299 -56.63528 36872 ft 467 kts 83°
2026-04-14 17:20 -2.63500 -56.57091 36862 ft 459 kts 83°
2026-04-14 17:20 -2.63112 -56.53970 36862 ft 443 kts 83°
2026-04-14 17:20 -2.62736 -56.50948 36752 ft 432 kts 83°
2026-04-14 17:21 -2.62364 -56.47951 35938 ft 439 kts 83°
2026-04-14 17:21 -2.61983 -56.44877 34949 ft 450 kts 83°
2026-04-14 17:21 -2.61599 -56.41772 34035 ft 460 kts 83°
2026-04-14 17:21 -2.61225 -56.38555 33046 ft 468 kts 84°
2026-04-14 17:22 -2.60863 -56.35292 32124 ft 473 kts 84°
2026-04-14 17:22 -2.60499 -56.32007 31274 ft 476 kts 84°
2026-04-14 17:22 -2.60134 -56.28755 30520 ft 477 kts 84°
2026-04-14 17:22 -2.59759 -56.25452 29736 ft 477 kts 83°
2026-04-14 17:23 -2.59380 -56.22152 28805 ft 478 kts 83°
2026-04-14 17:23 -2.58998 -56.18849 27863 ft 479 kts 83°
2026-04-14 17:23 -2.58615 -56.15534 26886 ft 480 kts 84°
2026-04-14 17:23 -2.58231 -56.12213 25993 ft 479 kts 84°
2026-04-14 17:24 -2.57848 -56.08907 25306 ft 474 kts 84°
2026-04-14 17:24 -2.57472 -56.05648 24717 ft 467 kts 84°
2026-04-14 17:24 -2.57106 -56.02483 24122 ft 460 kts 84°
2026-04-14 17:24 -2.56740 -55.99308 23492 ft 456 kts 84°
2026-04-14 17:25 -2.56378 -55.96172 22744 ft 451 kts 84°
2026-04-14 17:25 -2.56021 -55.93073 22026 ft 446 kts 84°
2026-04-14 17:25 -2.55666 -55.89999 21325 ft 441 kts 84°
2026-04-14 17:25 -2.55320 -55.87000 20647 ft 437 kts 84°
2026-04-14 17:26 -2.54972 -55.83986 19974 ft 433 kts 84°
2026-04-14 17:26 -2.54628 -55.81005 19313 ft 429 kts 84°
2026-04-14 17:26 -2.54287 -55.78059 18674 ft 425 kts 83°
2026-04-14 17:26 -2.53950 -55.75136 18033 ft 421 kts 83°
2026-04-14 17:27 -2.53613 -55.72225 17339 ft 417 kts 83°
2026-04-14 17:27 -2.53286 -55.69390 16698 ft 412 kts 83°
2026-04-14 17:27 -2.52958 -55.66554 16068 ft 408 kts 83°
2026-04-14 17:27 -2.52634 -55.63750 15440 ft 404 kts 83°
2026-04-14 17:28 -2.52312 -55.60972 14829 ft 400 kts 83°
2026-04-14 17:28 -2.51995 -55.58226 14230 ft 396 kts 83°
2026-04-14 17:28 -2.51680 -55.55506 13639 ft 392 kts 83°
2026-04-14 17:28 -2.51368 -55.52806 12974 ft 389 kts 83°
2026-04-14 17:29 -2.51057 -55.50123 12330 ft 386 kts 83°
2026-04-14 17:29 -2.50751 -55.47469 11699 ft 383 kts 83°
2026-04-14 17:29 -2.50472 -55.44823 11059 ft 380 kts 84°
2026-04-14 17:29 -2.50218 -55.42227 10458 ft 378 kts 84°
2026-04-14 17:30 -2.49966 -55.39620 9859 ft 376 kts 84°
2026-04-14 17:30 -2.49716 -55.37023 9229 ft 373 kts 84°
2026-04-14 17:30 -2.49464 -55.34442 8630 ft 369 kts 84°
2026-04-14 17:30 -2.49215 -55.31895 8048 ft 366 kts 84°
2026-04-14 17:31 -2.48970 -55.29410 7551 ft 361 kts 84°
2026-04-14 17:31 -2.48727 -55.26948 7124 ft 348 kts 84°
2026-04-14 17:31 -2.48494 -55.24597 6758 ft 330 kts 84°
2026-04-14 17:31 -2.48273 -55.22363 6416 ft 316 kts 84°
2026-04-14 17:32 -2.48061 -55.20223 6077 ft 303 kts 84°
2026-04-14 17:32 -2.47857 -55.18167 5747 ft 291 kts 84°
2026-04-14 17:32 -2.47661 -55.16190 5445 ft 281 kts 84°
2026-04-14 17:32 -2.47472 -55.14276 5151 ft 272 kts 84°
2026-04-14 17:33 -2.47288 -55.12414 4873 ft 266 kts 84°
2026-04-14 17:33 -2.47107 -55.10595 4594 ft 260 kts 84°
2026-04-14 17:33 -2.46931 -55.08813 4312 ft 254 kts 84°
2026-04-14 17:34 -2.46535 -55.05355 3853 ft 249 kts 81°
2026-04-14 17:34 -2.46252 -55.03680 3804 ft 240 kts 80°
2026-04-14 17:34 -2.45977 -55.02064 3705 ft 232 kts 80°
2026-04-14 17:34 -2.45714 -55.00494 3619 ft 225 kts 80°
2026-04-14 17:35 -2.45461 -54.98970 3519 ft 219 kts 80°
2026-04-14 17:35 -2.45214 -54.97471 3312 ft 218 kts 80°
2026-04-14 17:35 -2.44973 -54.95995 3128 ft 211 kts 80°
2026-04-14 17:35 -2.44740 -54.94567 2902 ft 204 kts 80°
2026-04-14 17:36 -2.44591 -54.93647 2756 ft 199 kts 80°
2026-04-14 17:36 -2.44302 -54.91864 2433 ft 189 kts 80°
2026-04-14 17:36 -2.44096 -54.90598 2182 ft 184 kts 80°
2026-04-14 17:36 -2.43896 -54.89362 1943 ft 177 kts 80°
2026-04-14 17:37 -2.43701 -54.88167 1703 ft 172 kts 80°
2026-04-14 17:37 -2.43570 -54.87375 1586 ft 168 kts 80°
2026-04-14 17:37 -2.43387 -54.86267 1419 ft 156 kts 80°
2026-04-14 17:37 -2.43215 -54.85223 1175 ft 151 kts 80°
2026-04-14 17:38 -2.43045 -54.84189 989 ft 151 kts 80°
2026-04-14 17:38 -2.42869 -54.83148 813 ft 152 kts 80°
2026-04-14 17:38 -2.42697 -54.82105 600 ft 151 kts 81°
2026-04-14 17:38 -2.42531 -54.81071 386 ft 150 kts 80°
2026-04-14 17:39 -2.42364 -54.80050 213 ft 147 kts 81°
2026-04-14 17:39 -2.42215 -54.79138 215 ft 113 kts 81°
2026-04-14 17:39 -2.42112 -54.78513 211 ft 69 kts 81°
2026-04-14 17:39 -2.42077 -54.78237 209 ft 11 kts 128°
2026-04-14 17:40 -2.42147 -54.78248 213 ft 11 kts 204°
2026-04-14 17:40 -2.42213 -54.78279 212 ft 10 kts 206°
2026-04-14 17:40 -2.42277 -54.78309 210 ft 10 kts 204°
2026-04-14 17:40 -2.42308 -54.78362 205 ft 10 kts 275°
2026-04-14 17:41 -2.42300 -54.78429 205 ft 9 kts 266°
2026-04-14 17:41 -2.42309 -54.78494 207 ft 9 kts 257°
2026-04-14 17:41 -2.42336 -54.78550 210 ft 9 kts 236°
2026-04-14 17:41 -2.42369 -54.78586 209 ft 5 kts 208°
2026-04-14 17:42 -2.42393 -54.78579 205 ft 4 kts 136°
2026-04-14 17:42 -2.42405 -54.78566 204 ft 1 kts 132°
2026-04-14 17:42 -2.42406 -54.78565 204 ft 0 kts 132°